Regional Weather Roundup
Issued by NWS Upton, NY

Current Version | Previous Version | Text Only | Print | Product List | Glossary Off
Versions: 1 2 3 4 5 6 7 8 9 10 11 12 13 14 15 16 17 18 19 20 21 22 23 24 25 26 27 28 29
000 ASUS41 KOKX 230208 RWROKX REGIONAL WEATHER ROUNDUP NATIONAL WEATHER SERVICE NEW YORK NY 900 PM EST WED NOV 22 2017 NOTE: "FAIR" INDICATES FEW OR NO CLOUDS BELOW 12,000 FEET WITH NO SIGNIFICANT WEATHER AND/OR OBSTRUCTIONS TO VISIBILITY. NYZ071-072-176-178-NJZ106-104-230300- NEW YORK CITY METRO AREA CITY SKY/WX TMP DP RH WIND PRES REMARKS Central Park PTCLDY 38 23 55 NW8G21 30.08R WCI 32 Bronx Bot Gard N/A 37 23 56 NW5 30.05R WCI 34 Bronx Lehman C N/A 37 32 81 NW13 N/A WCI 29 LaGuardia APRT PTCLDY 40 25 55 NW21G29 30.05R WCI 30 Queens College N/A 39 32 75 NW13G24 N/A WCI 32 Kennedy INTL PTCLDY 38 24 57 NW21G28 30.06R WCI 28 Breezy Point N/A 37 N/A N/A NW12G20 N/A WCI 30 Brooklyn Coll N/A 39 32 75 NW14 N/A WCI 31 Staten Island N/A 37 32 81 N13 N/A WCI 29 Newark/Liberty PTCLDY 38 22 52 NW23G31 30.08R WCI 27 Teterboro CLEAR 38 22 52 NW18G30 30.06R WCI 28 $$ NYZ177-179-078>081-230300- LONG ISLAND NEW YORK CITY SKY/WX TMP DP RH WIND PRES REMARKS Jones Beach N/A 39 N/A N/A NW15G21 N/A WCI 31 Wantagh N/A 39 32 75 W10 N/A WCI 32 Matinecock PT N/A 41 N/A N/A NW18 N/A Farmingdale CLEAR 39 25 57 NW7G17 30.03R WCI 34 MacArthur/ISP MOCLDY 41 26 55 NW18G24 30.01R Shirley MOCLDY 41 29 62 NW16G25 30.01R Mt Sinai Harb N/A N/A N/A N/A NW13G20 N/A Westhampton CLEAR 40 26 57 NW22G30 30.01R WCI 30 East Hampton FAIR 39 27 61 NW16G36 29.97R WCI 30 Southold N/A 41 32 70 NW15 N/A Montauk N/A 43 30 60 NW18G30 29.96R $$ NYZ052-065-067-230300- HUDSON VALLEY CITY SKY/WX TMP DP RH WIND PRES REMARKS White Plains CLEAR 37 22 54 NW15G24 30.01R WCI 28 Larchmont Harb N/A 39 N/A N/A W13G18 N/A WCI 32 Croton On Huds N/A 39 N/A N/A NW16 N/A WCI 30 Somers N/A 36 32 87 NW5 N/A WCI 32 Brewster N/A 36 32 87 NW10 N/A WCI 28 Newburgh MOCLDY 36 23 60 NW14G23 30.05R WCI 27 Montgomery MOCLDY 37 22 54 NW13G20 30.04R WCI 29 Suffern N/A 36 32 87 N8 N/A WCI 29 Poughkeepsie PTCLDY 38 22 52 NW10 30.04R WCI 31 Albany CLOUDY 36 19 50 NW16G29 30.07R WCI 26 $$ NJZ001-105-106-008-010-013-015-019>022-104-230300- NEW JERSEY CITY SKY/WX TMP DP RH WIND PRES REMARKS Newark/Liberty PTCLDY 38 22 52 NW23G31 30.08R WCI 27 Teterboro CLEAR 38 22 52 NW18G30 30.06R WCI 28 Caldwell PTCLDY 35 21 56 NW8G17 30.08R WCI 29 Somerville PTCLDY 37 23 56 N17G29 30.07R WCI 27 Linden MOCLDY 38 23 55 NW13G21 30.08R WCI 30 Perth Amboy N/A 37 N/A N/A NW18G24 N/A WCI 27 Sussex CLOUDY 34 20 56 N10G20 30.08R WCI 26 Andover N/A 34 22 61 VRB5 30.08S WCI 30 Trenton CLEAR 38 23 55 NW8 30.08R WCI 32 Millville CLEAR 40 27 59 NW8 30.09S WCI 34 Atlantic City CLEAR 41 28 60 NW16 30.06R Wrightstown CLEAR 37 24 59 NW9G17 30.07R WCI 30 Toms River CLEAR 38 25 59 NW13G21 30.08R WCI 30 Belmar CLEAR 38 25 59 NW14 30.07R WCI 30 $$ PAZ047>061-062-071-230300- EASTERN PENNSYLVANIA CITY SKY/WX TMP DP RH WIND PRES REMARKS Philadelphia PTCLDY 40 22 48 N18G25 30.11R WCI 31 Allentown CLOUDY 37 21 52 NW14G20 30.11R WCI 28 Scranton CLOUDY 32 19 58 NW18G25 30.12S WCI 20 $$ CTZ002-004>006-009-010-012-RIZ004-006-007-MAZ004-011-015-230300- SOUTHERN NEW ENGLAND IN CT CITY SKY/WX TMP DP RH WIND PRES REMARKS Bradley INTL CLOUDY 39 26 59 NW17G25 29.97S WCI 30 Hartford CLOUDY 41 26 55 NW17G26 29.98R Danbury CLOUDY 38 24 57 NW12G17 30.02R WCI 30 Wtrbury/Oxford CLOUDY 36 24 62 NW17G30 29.98R WCI 26 Norwalk Harbor N/A 39 N/A N/A W14 N/A WCI 31 Bridgeport MOCLDY 40 25 55 NW7 30.01R Meriden PTCLDY 38 25 59 N16G29 29.99R WCI 29 New Haven MOCLDY 41 25 53 NW9G22 30.00R Chester MOCLDY 37 27 65 NW8G17 29.96R WCI 31 Groton CLEAR 40 27 59 NW18 29.95R WCI 31 Wilimantic CLOUDY 40 28 62 NW12G21 29.95R WCI 33 IN RI CITY SKY/WX TMP DP RH WIND PRES REMARKS Providence PTCLDY 40 32 73 NW13G21 29.91R WCI 32 Block Island MOCLDY 41 30 65 NW16G29 29.93R Westerly CLEAR 41 30 65 NW9G22 29.94R IN MA CITY SKY/WX TMP DP RH WIND PRES REMARKS Boston MOCLDY 40 31 70 NW16G28 29.88R WCI 31 Worcester MOCLDY 35 25 66 NW21G26 29.88S WCI 24 Westfield CLOUDY 38 27 64 NW21 29.96R WCI 28 Provincetown CLOUDY 42 35 76 NW26G38 29.84R Nantucket MOCLDY 43 37 79 NW24G41 29.84R $$ ANZ330-335-338-340-345-350-353-355-230300- COASTAL MARINE OBSERVATIONS STATION/POSITION TIME SKY/WX TEMP WIND PRES VSBY WAVE AIR SEA DIR/SP/G HT/PER (UTC) (F) (DEG/KT/KT) (MB) (MI) (FT/S) NY HARB ENTRANCE 0050 44 57 320/ 25/ 31 1015.8 4/ 4 20 S FIRE ISLAND 0150 44 56 320/ 21/ 27 1016.2 5/ 6 GREAT SOUTH BAY 0130 42 45 300/ 14/ 19 N/A HUDSON CANYON 0150 48 59 330/ 23/ 27 1014.8 10/ 7 KINGS POINT 0124 41 51 360/ 18/ 23 1017.8 EXECUTION ROCKS 0130 42 300/ 17/ 23 N/A WESTERN LI SOUND 0119 42 310/ 17/ 23 N/A 1/ 3 CENTRAL LI SOUND NOT AVBL ROBBINS REEF 0142 39 310/ 19/ 24 1018.4 $$ >>>>>>>>>>>>>>>>>>>>>>>>>>>> KEY <<<<<<<<<<<<<<<<<<<<<<<<<<< > < > SKY/WX - Sky Condition/Present Weather < > TMP - Temperature in Fahrenheit < > DP - Dew Point in Fahrenheit < > RH - Relative Humidity in Percent < > WIND - Direction (from) and Speed in MPH < > PRES - Mean Sea Level Pressure (inches of Hg) < > WCI - Wind Chill Index < > VSB - VISIBILITY IN MILES < > HX - HEAT INDEX < > TC - TEMPERATURE IN CELSIUS < > VRB - VARIABLE WIND DIRECTION < > < >>>>>>>>>>>>>>>>>>>>>>>>>>>> KEY <<<<<<<<<<<<<<<<<<<<<<<<<<<

USA.gov is the U.S. government's official web portal to all federal, state and local government web resources and services.